www.pogodaiklimat.ru

Погода и климат >> Архив погоды >> Австралия >> Marree Aero


ПОГОДА в Marree Aero

  • Прогноз погоды в Marree Aero
  • Монитор погоды в Marree Aero
  • Климат города

АРХИВ ПОГОДЫ в Marree Aero

Время (UTC), дата Ветер
(напр.,м/с)
 
Видим.   Явления Облачность Т
(С)
Тd
(С)
f
(%)
Тe
(С)
Тes
(С)
Комфортность P
(гПа)
Po
(гПа)
Тmin
(С)
Tmax
(С)
R
(мм)
R24
(мм)
S
(см)
04 12.08 СВ 5 н/о н/о +21.3 -1.3 22 +21 +21 комфорт 1021.8 1015.7
05 12.08 С 3 н/о н/о +22.2 -1.1 21 +21 +21 комфорт 1021.0 1014.9
06 12.08 С 3 н/о н/о +22.3 -1.7 20 +21 +21 комфорт 1020.8 1014.7
08 12.08 С 4 н/о н/о +21.3 -1.9 21 +21 +21 комфорт 1020.1 1014.0
07 12.08 С 3 н/о н/о +22.5 -2.2 19 +21 +21 комфорт 1020.2 1014.1
09 12.08 СВ 4 н/о н/о +17.8 -1.9 26 +18 +18 1020.2 1014.1
10 12.08 С 3 н/о н/о +14.5 -2.8 30 +14 +14 1020.8 1014.7
11 12.08 СЗ 2 н/о н/о +13.2 -2.7 33 +13 +13 1021.0 1014.9
12 12.08 С 2 н/о н/о +10.7 -3.4 37 +10 +10 1020.8 1014.7
14 12.08 штиль 0 н/о н/о +9.6 -3.0 41 +9 +9 1020.9 1014.8
13 12.08 СВ 3 н/о н/о +10.9 -2.5 39 +9 +9 1020.9 1014.8
15 12.08 С 3 н/о н/о +8.3 -3.2 44 +6 +6 1020.8 1014.7
16 12.08 ЮВ 4 н/о н/о +8.0 -3.2 45 +6 +6 1020.8 1014.7
17 12.08 В 5 н/о н/о +7.5 -3.1 47 +4 +4 1020.5 1014.4
18 12.08 ЮВ 4 н/о н/о +8.4 -2.8 45 +6 +6 1020.3 1014.2
20 12.08 ЮВ 5 н/о н/о +8.9 -2.7 44 +6 +6 1020.5 1014.4
19 12.08 ЮВ 4 н/о н/о +8.9 -2.7 44 +6 +6 1020.3 1014.2
21 12.08 ЮВ 4 н/о н/о +8.3 -2.9 45 +6 +6 1021.4 1015.3
22 12.08 ЮВ 4 н/о н/о +10.2 -2.4 41 +8 +8 1021.7 1015.6
23 12.08 В 4 н/о н/о +13.1 -2.0 35 +12 +12 1022.1 1016.0
00 13.08 СВ 4 н/о н/о +18.7 -2.3 24 +19 +19 1021.9 1015.8
02 13.08 С 6 н/о н/о +24.8 -1.1 18 +23 +23 комфорт 1020.9 1014.8
01 13.08 СВ 6 н/о н/о +22.0 -2.0 20 +21 +21 комфорт 1021.6 1015.5
03 13.08 С 7 н/о н/о +25.7 -0.4 18 +24 +24 комфорт 1019.6 1013.5
04 13.08 С 7 н/о н/о +27.8 -0.3 16 +25 +25 комфорт 1018.2 1012.1
05 13.08 С 7 н/о н/о +28.1 -0.9 15 +26 +26 жарко 1017.8 1011.7
06 13.08 СЗ 6 н/о н/о +28.6 -0.5 15 +26 +26 жарко 1017.7 1011.6
08 13.08 СЗ 3 н/о н/о +25.7 +0.4 19 +24 +24 комфорт 1018.1 1012.0
07 13.08 СЗ 5 н/о н/о +27.3 +0.1 17 +25 +25 комфорт 1017.8 1011.7
09 13.08 С 4 н/о н/о +23.0 +0.8 23 +22 +22 комфорт 1018.0 1011.9
10 13.08 С 3 н/о н/о +20.3 +0.7 27 +21 +21 комфорт 1018.8 1012.7
11 13.08 С 2 н/о н/о +17.1 +0.3 32 +18 +18 1019.5 1013.4
12 13.08 ЮВ 3 н/о н/о +17.7 +0.4 31 +18 +18 1019.5 1013.4
14 13.08 С 4 н/о н/о +15.6 +0.2 35 +15 +15 1018.7 1012.6
13 13.08 ЮВ 4 н/о н/о +16.7 +0.4 33 +16 +16 1019.3 1013.2
15 13.08 СВ 3 н/о н/о +14.7 -0.2 36 +14 +14 1018.3 1012.2
16 13.08 В 3 н/о н/о +14.5 +0.4 38 +14 +14 1017.9 1011.8
17 13.08 В 3 н/о н/о +14.8 +0.3 37 +14 +14 1017.7 1011.6
18 13.08 В 4 н/о н/о +13.6 +0.6 41 +13 +13 1017.6 1011.5
20 13.08 СВ 4 н/о н/о +12.1 +0.5 45 +11 +11 1017.8 1011.7
19 13.08 ЮВ 3 н/о н/о +14.3 +1.2 41 +14 +14 1017.8 1011.7
21 13.08 С 3 н/о н/о +11.0 +0.7 49 +9 +9 1017.6 1011.5
22 13.08 В 3 н/о н/о +12.7 +1.4 46 +12 +12 1018.4 1012.3
23 13.08 СВ 2 н/о н/о +17.6 +0.7 32 +18 +18 1019.0 1012.9
00 14.08 С 4 н/о н/о +22.1 +0.6 24 +22 +22 комфорт 1018.8 1012.7
02 14.08 С 11 н/о н/о +28.8 -0.4 15 +26 +26 жарко 1017.1 1011.0
01 14.08 С 8 н/о н/о +27.0 -0.1 17 +25 +25 комфорт 1018.3 1012.2
03 14.08 СЗ 10 н/о н/о +30.4 -1.1 13 +27 +27 жарко 1015.9 1009.8
04 14.08 СЗ 12 н/о н/о +31.5 -2.5 11 +28 +28 жарко 1014.5 1008.4
05 14.08 СЗ 10 н/о н/о +31.4 -1.4 12 +28 +28 жарко 1013.7 1007.6
06 14.08 СЗ 10 н/о н/о +32.0 -2.1 11 +28 +28 жарко 1012.9 1006.9
08 14.08 С 8 н/о н/о +30.5 -2.1 12 +27 +27 жарко 1012.7 1006.7
07 14.08 СЗ 10 н/о н/о +31.6 -2.4 11 +28 +28 жарко 1012.7 1006.7
09 14.08 С 5 н/о н/о +26.5 -1.3 16 +24 +24 комфорт 1012.7 1006.7
10 14.08 С 5 н/о н/о +24.9 -1.0 18 +23 +23 комфорт 1013.1 1007.1
11 14.08 С 5 н/о н/о +22.2 -0.5 22 +21 +21 комфорт 1013.3 1007.2
12 14.08 С 5 н/о н/о +21.5 -0.5 23 +21 +21 комфорт 1012.9 1006.9
14 14.08 С 5 н/о н/о +21.3 -0.6 23 +21 +21 комфорт 1012.2 1006.2
13 14.08 С 5 н/о н/о +21.8 -0.8 22 +21 +21 комфорт 1012.6 1006.6
15 14.08 С 5 н/о н/о +21.0 -0.9 23 +21 +21 комфорт 1011.9 1005.9
16 14.08 С 4 н/о н/о +18.5 -0.8 27 +19 +19 1011.5 1005.5
17 14.08 С 4 н/о н/о +19.1 -0.8 26 +19 +19 1011.0 1005.0
18 14.08 С 5 н/о н/о +19.2 -0.7 26 +19 +19 1010.4 1004.4
20 14.08 С 5 н/о н/о +18.0 -0.8 28 +18 +18 1010.3 1004.3
19 14.08 С 5 н/о н/о +18.2 -1.1 27 +18 +18 1010.3 1004.3
21 14.08 С 2 н/о н/о +16.2 -0.9 31 +16 +16 1010.4 1004.4
22 14.08 С 6 н/о н/о +18.6 -0.7 27 +18 +18 1010.5 1004.5
23 14.08 СЗ 8 н/о н/о +22.0 -0.7 22 +21 +21 комфорт 1010.6 1004.6
00 15.08 З 7 н/о н/о +24.3 -0.8 19 +23 +23 комфорт 1011.0 1005.0
02 15.08 СЗ 12 н/о н/о +30.0 -2.5 12 +27 +27 жарко 1009.0 1003.0
01 15.08 СЗ 9 н/о н/о +27.5 -1.4 15 +25 +25 комфорт 1010.2 1004.2
03 15.08 СЗ 10 н/о н/о +31.7 -2.3 11 +28 +28 жарко 1007.4 1001.4
04 15.08 СЗ 12 н/о н/о +33.1 -2.6 10 +29 +29 жарко 1006.1 1000.1
05 15.08 СЗ 11 н/о н/о +34.1 -1.8 10 +30 +30 жарко 1005.4 999.4
06 15.08 СЗ 12 н/о н/о +34.0 -1.9 10 +30 +30 жарко 1004.7 998.7
08 15.08 СЗ 9 н/о н/о +32.0 +0.2 13 +29 +29 жарко 1004.4 998.4
07 15.08 СЗ 11 н/о н/о +33.4 +0.1 12 +30 +30 жарко 1004.4 998.4
09 15.08 З 9 н/о н/о +30.0 +1.5 16 +27 +27 жарко 1005.1 999.1
10 15.08 З 6 н/о н/о +26.8 +2.7 21 +25 +25 комфорт 1006.3 1000.3
11 15.08 ЮЗ 8 н/о н/о +24.9 +8.0 34 +25 +25 комфорт 1007.3 1001.3
12 15.08 Ю 7 н/о н/о +23.5 +9.1 40 +24 +24 комфорт 1007.9 1001.9
14 15.08 Ю 11 н/о н/о +18.2 +11.7 66 +17 +17 1010.4 1004.4
13 15.08 Ю 14 н/о н/о +19.4 +9.6 53 +19 +19 1008.9 1002.9
15 15.08 ЮЗ 8 н/о н/о +18.0 +13.1 73 +17 +17 1010.9 1004.9
16 15.08 ЮЗ 5 н/о н/о +17.2 +11.9 71 +17 +17 1011.2 1005.2
17 15.08 Ю 7 н/о н/о +16.7 +12.3 75 +16 +16 1011.3 1005.3
18 15.08 ЮЗ 7 н/о н/о +15.6 +6.3 54 +14 +14 1011.4 1005.4
20 15.08 ЮЗ 4 н/о н/о +14.2 +7.5 64 +13 +13 1012.3 1006.3
19 15.08 ЮЗ 4 н/о н/о +15.3 +7.1 58 +14 +14 1011.8 1005.8
21 15.08 З 4 н/о н/о +13.3 +7.3 67 +12 +12 1013.4 1007.3
22 15.08 ЮЗ 3 н/о н/о +12.6 +7.5 71 +11 +11 1014.1 1008.0
23 15.08 З 4 н/о н/о +16.0 +7.5 57 +15 +15 1015.0 1008.9
00 16.08 ЮЗ 8 н/о н/о +17.5 +6.7 49 +16 +16 1015.0 1008.9
02 16.08 З 8 н/о н/о +19.2 +2.1 32 +19 +19 1014.6 1008.5
01 16.08 ЮЗ 8 н/о н/о +18.8 +3.4 36 +18 +18 1015.1 1009.0
03 16.08 З 7 н/о н/о +20.7 +1.6 28 +21 +21 комфорт 1013.7 1007.6
04 16.08 ЮЗ 6 н/о н/о +21.0 -0.3 24 +21 +21 комфорт 1012.6 1006.6
05 16.08 З 7 н/о н/о +21.2 -2.0 21 +21 +21 комфорт 1012.1 1006.1
06 16.08 З 7 н/о н/о +21.6 -2.3 20 +21 +21 комфорт 1012.0 1006.0
08 16.08 З 6 н/о н/о +20.1 -2.3 22 +20 +20 1012.6 1006.6
07 16.08 З 7 н/о н/о +21.3 -1.9 21 +21 +21 комфорт 1012.1 1006.1
09 16.08 З 4 н/о н/о +17.1 -3.6 24 +17 +17 1013.4 1007.3
10 16.08 З 2 н/о н/о +14.8 -3.5 28 +15 +15 1014.1 1008.0
11 16.08 З 3 н/о н/о +12.9 -3.8 31 +12 +12 1014.5 1008.4
12 16.08 З 3 н/о н/о +12.6 -4.1 31 +12 +12 1014.8 1008.7
14 16.08 СЗ 2 н/о н/о +9.9 -3.7 38 +9 +9 1015.0 1008.9
13 16.08 З 3 н/о н/о +10.2 -4.2 36 +9 +9 1015.0 1008.9
15 16.08 ЮЗ 2 н/о н/о +8.5 -4.0 41 +8 +8 1014.7 1008.6
16 16.08 С 2 н/о н/о +7.5 -4.6 42 +6 +6 1014.5 1008.4
17 16.08 С 1 н/о н/о +7.5 -4.2 43 +8 +8 1014.1 1008.0
18 16.08 штиль 0 н/о н/о +6.1 -4.6 46 +6 +6 1013.8 1007.7
20 16.08 З 3 н/о н/о +5.0 -5.1 48 +3 +3 1014.6 1008.5
19 16.08 С 3 н/о н/о +6.5 -4.0 47 +4 +4 1014.1 1008.0
21 16.08 ЮЗ 5 н/о н/о +5.0 -4.5 50 +1 +1 1015.4 1009.3
22 16.08 З 5 н/о н/о +7.7 -3.2 46 +5 +5 1016.0 1009.9
23 16.08 З 4 н/о н/о +14.1 -1.9 33 +13 +13 1017.0 1010.9
00 17.08 З 4 н/о н/о +17.7 -0.1 30 +17 +17 1017.7 1011.6
02 17.08 З 9 н/о н/о +21.0 +0.8 26 +21 +21 комфорт 1017.1 1011.0
01 17.08 З 6 н/о н/о +19.8 +1.3 29 +20 +20 1017.5 1011.4
03 17.08 З 9 н/о н/о +21.6 +0.2 24 +21 +21 комфорт 1016.5 1010.4
04 17.08 З 9 н/о н/о +22.2 -1.1 21 +21 +21 комфорт 1015.8 1009.7
05 17.08 З 11 н/о н/о +22.9 -1.2 20 +22 +22 комфорт 1015.5 1009.4
06 17.08 З 10 н/о н/о +22.7 -1.4 20 +22 +22 комфорт 1015.5 1009.4
08 17.08 ЮЗ 9 н/о н/о +21.2 -2.0 21 +21 +21 комфорт 1016.4 1010.3
07 17.08 З 10 н/о н/о +22.4 -1.6 20 +21 +21 комфорт 1015.6 1009.5
09 17.08 З 6 н/о н/о +19.0 -2.0 24 +19 +19 1017.4 1011.3
10 17.08 ЮЗ 4 н/о н/о +15.5 -2.0 30 +15 +15 1018.6 1012.5
11 17.08 ЮЗ 4 н/о н/о +13.5 -2.0 34 +12 +12 1019.6 1013.5
12 17.08 ЮЗ 5 н/о н/о +12.1 -2.5 36 +10 +10 1020.3 1014.2
14 17.08 ЮЗ 4 н/о н/о +9.0 -2.3 45 +7 +7 1021.3 1015.2
13 17.08 ЮЗ 4 н/о н/о +10.3 -2.0 42 +8 +8 1020.7 1014.6
15 17.08 ЮЗ 6 н/о н/о +12.8 +2.4 49 +11 +11 1021.6 1015.5
16 17.08 Ю 4 н/о н/о +10.1 +1.7 56 +8 +8 1021.8 1015.7
17 17.08 ЮВ 5 н/о н/о +10.9 +3.2 59 +8 +8 1022.3 1016.2
18 17.08 Ю 6 н/о н/о +10.6 +3.6 62 +8 +8 1022.5 1016.4
20 17.08 Ю 4 н/о н/о +8.1 +3.4 72 +5 +5 1023.6 1017.5
19 17.08 Ю 5 н/о н/о +9.8 +3.5 65 +7 +7 1023.0 1016.9
21 17.08 ЮЗ 5 н/о н/о +8.3 +4.1 75 +5 +5 1024.2 1018.1
22 17.08 ЮЗ 4 н/о н/о +8.4 +4.2 75 +6 +6 1025.2 1019.1
23 17.08 Ю 8 н/о н/о +12.9 +4.8 58 +10 +10 1025.8 1019.7
00 18.08 Ю 9 н/о н/о +14.8 +3.9 48 +13 +13 1026.7 1020.6
02 18.08 Ю 9 н/о н/о +17.9 +2.2 35 +17 +17 1026.0 1019.9
01 18.08 Ю 9 н/о н/о +16.3 +2.7 40 +15 +15 1026.6 1020.5
03 18.08 ЮВ 7 н/о н/о +19.0 +2.4 33 +19 +19 1025.3 1019.2
04 18.08 Ю 8 н/о н/о +19.6 +1.1 29 +19 +19 1024.7 1018.6
05 18.08 Ю 8 н/о н/о +20.2 +0.6 27 +20 +20 1024.3 1018.2
06 18.08 Ю 8 н/о н/о +19.8 +0.3 27 +19 +19 1024.5 1018.4
08 18.08 Ю 7 н/о н/о +18.2 -0.6 28 +17 +17 1025.1 1019.0
07 18.08 Ю 7 н/о н/о +19.4 -0.6 26 +19 +19 1024.5 1018.4
09 18.08 Ю 5 н/о н/о +16.0 +0.2 34 +15 +15 1025.6 1019.5
10 18.08 Ю 4 н/о н/о +13.1 -0.2 40 +12 +12 1026.3 1020.2
11 18.08 ЮЗ 4 н/о н/о +11.8 0.0 44 +10 +10 1026.8 1020.7
12 18.08 Ю 5 н/о н/о +10.6 +0.3 49 +8 +8 1027.3 1021.2
14 18.08 Ю 5 н/о н/о +9.4 +0.3 53 +7 +7 1027.2 1021.1
13 18.08 Ю 4 н/о н/о +9.4 +0.1 52 +7 +7 1027.3 1021.2
15 18.08 В 4 н/о н/о +6.8 -1.1 57 +4 +4 1027.0 1020.9
16 18.08 С 5 н/о н/о +6.6 -1.1 58 +3 +3 1027.1 1021.0
17 18.08 СВ 5 н/о н/о +5.7 -1.2 61 +2 +2 1027.1 1021.0
18 18.08 С 3 н/о н/о +4.0 -2.0 65 +1 +1 1027.1 1021.0
20 18.08 ЮВ 4 н/о н/о +2.9 -2.2 69 -1 -1 1027.8 1021.7
19 18.08 С 3 н/о н/о +3.5 -2.0 67 -0 -0 1027.4 1021.3
21 18.08 С 2 н/о н/о +2.3 -2.6 70 -1 -1 1028.8 1022.7
22 18.08 С 3 н/о н/о +4.3 -1.7 65 +1 +1 1029.3 1023.2
23 18.08 С 4 н/о н/о +10.8 +1.1 51 +9 +9 1030.2 1024.0
00 19.08 СВ 5 н/о н/о +13.6 +1.3 43 +12 +12 1030.5 1024.3
02 19.08 С 4 н/о н/о +16.6 +1.5 36 +16 +16 1029.4 1023.3
01 19.08 СВ 4 н/о н/о +15.5 +1.3 38 +15 +15 1030.2 1024.0

 

Местоположение метеостанции Marree Aero (Южная Австралия, Австралия): широта -29.66 долгота 138.06 высота над уровнем моря 51 м.

В архиве по умолчанию представлена погода в Marree Aero за последнюю неделю. Архивные данные за месяц целиком и за предыдущие месяцы, начиная с января 2011 года, Вы можете получить, выбрав интересующий диапазон дат из раскрывающегося списка и нажав кнопку "Ввод!".

Внимание! Время в таблицах - всемирное. Для получения местного времени необходимо прибавить поправку, которая в Marree Aero равна 9.5 ч.

Смотрите также архив погоды в соседних городах и на ближайших метеорологических станциях:

Погода в Leigh Creek Airport (Южная Австралия, Австралия) (110 км)
Погода в Olympic Dam Aerodrome (Южная Австралия, Австралия) (146 км)
Погода в Woomera Aerodrome (Южная Австралия, Австралия) (205 км)
Погода в Moomba Airport (Южная Австралия, Австралия) (271 км)
Погода в Port Augusta Arid Lands (Южная Австралия, Австралия) (320 км)
Погода в Coober Pedy Airport (Южная Австралия, Австралия) (332 км)
Погода в Oodnadatta Airport (Южная Австралия, Австралия) (346 км)
Погода в Yunta Airstrip (Южная Австралия, Австралия) (354 км)
Погода в Tarcoola Aero (Южная Австралия, Австралия) (355 км)
Погода в Whyalla Airport (Южная Австралия, Австралия) (383 км)

Пояснения к столбцам:

Ветер - указаны скорость ветра в м/с - средняя за 10 мин, порывы в срок и между сроками (в фигурных скобках) и направление, откуда дует ветер: С - северный, СВ - северо-восточный, В - восточный, ЮВ - юго-восточный, Ю - южный, ЮЗ - юго-западный, З - западный, СЗ - северо-западный.
Видимость - горизонтальная дальность видимости в метрах или километрах. При видимости от 1 до 10 км при отсутствии осадков обычно наблюдается дымка, при ухудшении видимости до 1 км и менее - туман. В сухую погоду видимость может ухудшаться дымом, пылью или мглою.
Явления - указаны атмосферные явления, наблюдавшиеся в срок или в последний час перед сроком; фигурными скобками обозначены явления, наблюдавшиеся между сроками (за 1-3 часа до срока); квадратными скобками обозначены град или гололедные отложения с указанием их диаметра в мм.
Облачность - указаны через наклонную черту общая и нижняя облачность в баллах и высота нижней границы облаков в метрах; квадратными скобками обозначены формы облаков: Ci - перистые, Cs - перисто-слоистые, Cc - перисто-кучевые, Ac - высококучевые, As - высокослоистые, Sc - слоисто-кучевые, Ns - слоисто-дождевые, Cu - кучевые, Cb - кучево-дождевые. Подробнее классификацию облаков см. в Атласе облаков (PDF).
T - Температура воздуха - температура, измеренная на высоте 2 м над землей.
Td - Температура точки росы - температура, при понижении до которой содержащийся в воздухе водяной пар достигнет насыщения.
f - Относительная влажность воздуха - влажноcть воздуха, измеренная на высоте 2 м над землей.
Te - Эффективная температура - температура, которую ощущает одетый по сезону человек в тени. Характеристика душности погоды. При расчете учитывается влияние влажности воздуха и скорости ветра на теплоощущения человека.
Tes - Эффективная температура на солнце - температура, которую ощущает человек, с поправкой на солнечный нагрев. Характеристика знойности погоды. Зависит от высоты солнца над горизонтом, облачности и скорости ветра. Ночью, в пасмурную погоду, а также при ветре 12 м/с и более поправка равна нулю.
P - Атмосферное давление - приведенное к уровню моря атмосферное давление.
Po - Атмосферное давление - измеренное на уровне метеостанции атмосферное давление.
Tmin - Минимальная температура - минимум температуры воздуха на высоте 2 м над землей.
Tmax - Максимальная температура - максимум температуры воздуха на высоте 2 м над землей.
R - Количество осадков - Количество выпавших осадков за период времени, мм. При наведении курсора мыши на число - период времени, за который выпало указанное количество осадков.
R24 - Количество осадков - Количество выпавших осадков за 24 часа, мм.
S - Снежный покров - Высота снежного покрова, см. При наведении курсора мыши на число - состояние снежного покрова и степень покрытия местности в баллах.